Location: Anuling
(14.1239°N, 120.8922°E)
Time: 04:07:19
(UTC+00:00)

Daily predictions for brighter satellites

Satellite Brightness Start Highest point End
(mag) Time Altitude Azimuth Time Altitude Azimuth Time Altitude Azimuth
GPS 2-15 Rocket1 4.4 10:03:40 10° W 10:07:54 38° SSW 10:12:08 10° SE
Cosmos 2366 rocket 4.0 10:02:47 10° N 10:09:06 69° E 10:15:23 10° S
Cosmos 2251 Rocket 4.1 10:04:55 10° NNW 10:10:04 65° WSW 10:15:13 10° S
Helios 1A Rocket 3.2 10:07:12 10° NE 10:10:11 32° E 10:13:09 10° SSE
Cosmos 2218 Rocket 4.1 10:05:14 10° N 10:11:34 66° E 10:17:49 10° SSE
ARIANE 5 R/B 2.7 10:06:48 10° S 10:12:00 81° W 10:17:12 10° NNW
MOS 1 Rocket 4.3 10:07:43 10° S 10:13:00 61° W 10:18:13 10° NNW
Cosmos 1340 Rocket 4.4 10:16:51 10° NE 10:18:59 14° E 10:21:08 10° ESE
CZ-2D R/B 4.1 10:16:13 10° S 10:19:12 43° W 10:22:11 10° NNW
Cosmos 1470 Rocket 3.5 10:15:04 10° N 10:19:24 81° E 10:23:46 10° S
Nadezhda 3 Rocket 4.0 10:13:40 10° S 10:19:45 65° E 10:25:48 10° NNE
Cosmos 1953 2.0 10:16:34 10° N 10:20:14 76° E 10:23:54 10° S
Cosmos 2369 Rocket 2.7 10:15:32 10° NNW 10:21:09 67° WSW 10:26:42 10° S
BlueWalker 3 3.9 10:19:59 10° SSE 10:21:27 12° ESE 10:22:54 10° E
Cosmos 2341 Rocket 4.3 10:18:43 10° N 10:24:58 75° W 10:31:10 10° S
Cosmos 1933 Rocket 4.1 10:23:37 10° NNE 10:27:35 35° E 10:31:32 10° SSE
Cosmos 2297 4.5 10:24:54 10° NNW 10:30:26 58° WSW 10:36:00 10° S
CZ-2D R/B 3.4 10:28:59 10° SSE 10:32:47 49° ENE 10:36:30 10° N
Okean 1-7 4.2 10:30:35 10° SE 10:33:42 21° E 10:35:19 17° ENE
Cosmos 332 Rocket 4.3 10:29:48 10° N 10:34:10 35° ENE 10:38:33 10° SE
Delta 168 3.3 10:35:11 10° SW 10:39:14 41° SSE 10:41:12 20° E
CARTOSAT-1 4.0 10:39:15 10° SE 10:43:03 34° ENE 10:46:51 10° NNE
Resurs 1-3 3.4 10:40:20 10° SSE 10:44:37 82° E 10:48:54 10° N
SPOT 1/Viking Rocket 4.2 10:42:18 10° S 10:47:22 58° WSW 10:52:26 10° NNW
OAO 3 Copernicus 4.4 10:46:52 10° NW 10:51:46 55° NNE 10:54:41 23° ESE
Ariane H10+ 3.5 10:45:46 10° WSW 10:52:58 31° SSW 10:55:06 15° SE
Cosmos 1869 Rocket 3.6 10:49:57 10° N 10:54:10 51° E 10:58:21 10° SSE
Cosmos 968 Rocket 3.3 10:50:42 10° N 10:55:47 79° ENE 11:00:50 10° SSE
Cosmos 1862 Rocket 3.4 10:57:54 10° S 11:02:19 73° E 11:05:37 18° N
OAO 3 Rocket 4.5 10:58:46 10° NNW 11:02:26 23° NNE 11:02:26 23° NNE
Delta 2 Rocket 4.0 10:55:57 10° WNW 11:03:09 84° NNE 11:07:09 24° ESE
Cosmos 1741 Rocket 3.9 10:58:55 10° N 11:04:01 59° ENE 11:09:06 10° SSE
USA 305 2.1 11:02:25 10° SSW 11:05:23 86° ESE 11:05:51 65° NE
NOAA 6 3.9 11:00:26 10° SSE 11:05:30 76° ENE 11:10:34 10° N
ARIANE 6 FM1 Upper Stage 4.4 11:03:28 10° SSE 11:05:32 19° SE 11:05:32 19° SE
Meteor 1-24 Rocket 4.1 11:04:29 10° SSE 11:09:25 37° E 11:09:45 37° E
Milstar 3 4.5 11:00:34 10° W 11:10:09 60° NNW 11:21:17 26° NE
Cosmos 1850 Rocket 3.9 11:06:50 10° N 11:12:08 80° ENE 11:17:26 10° SSE
Cosmos 1707 Rocket 3.8 11:14:17 10° S 11:18:36 68° W 11:21:18 22° N
Resurs 01 Rocket 1.4 11:14:52 10° SSE 11:19:13 81° ENE 11:23:05 13° N
YAOGAN 1 4.4 11:15:37 10° SSW 11:19:23 31° W 11:23:09 10° NW
Cosmos 2228 Rocket 3.2 11:21:53 10° S 11:26:24 78° W 11:27:49 43° N
SL-4 R/B 3.9 11:23:59 10° NNW 11:24:56 17° NNW 11:24:56 17° NNW
GPS 2-17 Rocket1 3.4 11:23:57 10° WNW 11:27:47 51° NNW 11:27:47 51° NNW
SWIFT 3.5 11:25:39 10° WNW 11:27:21 27° NW 11:27:21 27° NW
Cosmos 2082 Rocket 3.3 11:24:39 10° SSE 11:27:54 28° SE 11:27:54 28° SE
ARIANE 5 DEB (SYLDA) 4.4 11:25:15 10° WSW 11:29:53 25° S 11:31:53 20° SE
ARIANE 5 DEB (SYLDA) 4.1 11:32:11 10° SW 11:34:04 19° S 11:34:04 19° S
CZ-3C R/B 3.7 11:34:41 10° WSW 11:34:55 12° WSW 11:34:55 12° WSW
NATO 3D Rocket 4.2 11:37:18 10° SW 11:44:52 52° SSE 11:45:21 51° SE
